Location: Sternwarte_Laufen
(47.9344°N, 12.9346°E)
Time: 16:30:21
(UTC+02:00)

ISS - Pass Details

Date: 14 October 2018
Orbit: 403 x 408 km, 51.6° (Epoch: 20 October)

Event Time Altitude Azimuth Distance (km) Brightness Sun altitude
Rises 19:03:57 0° 282° (WNW) 2,337 1.8 -7.8°
Reaches altitude 10° 19:07:08 10° 248° (WSW) 1,470 0.4 -8.3°
Maximum altitude 19:08:23 12° 226° (SW) 1,367 -0.4 -8.5°
Drops below altitude 10° 19:09:38 10° 203° (SSW) 1,466 -0.6 -8.7°
Sets 19:12:48 0° 170° (S) 2,320 -0.1 -9.3°
